�N����,����,����,����,����,�C��,���x,�~����,���Ǝ���,�S�V����,�ő�u�ԕ���,,,
,,,,,,,,,,����,����,����,�N��
yyyy/mm/dd,hh:mm:ss,(16),16����,m/s,��,%,mm,min,KW/�u,(16),16����,m/s,Time
2011/6/1,1:00:00,270,��,2,0.3,99.3,0,0,0.01,270,��,3.7,59
2011/6/1,2:00:00,270,��,1.8,0.2,99.5,0,0,0.01,248,���쐼,3.6,0
2011/6/1,3:00:00,270,��,1.8,0.8,99.7,0,0,0.01,270,��,3.2,11
2011/6/1,4:00:00,293,���k��,2.1,1.2,99.8,0,0,0.01,293,���k��,3,55
2011/6/1,5:00:00,45,�k��,0.3,1.1,99.8,0,0,0.06,293,���k��,2.4,20
2011/6/1,6:00:00,315,�É�,0.2,3.5,99.4,0,12,0.11,360,�k,1.1,40
2011/6/1,7:00:00,135,�쓌,1,4.7,98.9,0,60,0.2,135,�쓌,2.4,46
2011/6/1,8:00:00,113,���쓌,1.5,5.2,98.6,0,60,0.25,113,���쓌,3.1,37
2011/6/1,9:00:00,90,��,2.3,6.1,97.3,0,60,0.3,90,��,3.9,31
2011/6/1,10:00:00,135,�쓌,2.9,6.3,91.3,0,60,0.36,135,�쓌,4.9,0
2011/6/1,11:00:00,135,�쓌,3.6,7.2,92.2,0,60,0.53,158,��쓌,5.6,0
2011/6/1,12:00:00,158,��쓌,3.3,7.3,87.6,0,60,0.6,135,�쓌,5.7,50
2011/6/1,13:00:00,158,��쓌,3.3,7.9,87.8,0,60,0.57,135,�쓌,6.1,30
2011/6/1,14:00:00,158,��쓌,4,7.7,83.6,0,60,0.77,158,��쓌,6.6,0
2011/6/1,15:00:00,158,��쓌,3.6,6.5,84.8,0,60,0.57,158,��쓌,6.3,30
2011/6/1,16:00:00,158,��쓌,2.8,6.5,84.8,0,60,0.37,135,�쓌,5.6,30
2011/6/1,17:00:00,158,��쓌,2.7,5.8,85.7,0,43,0.16,180,��,5.2,37
2011/6/1,18:00:00,158,��쓌,2.2,5.4,89,0,10,0.08,158,��쓌,5.1,11
2011/6/1,19:00:00,158,��쓌,1.8,5,90.8,0,0,0.02,158,��쓌,4.5,9
2011/6/1,20:00:00,158,��쓌,1.8,5.1,92.2,0,0,0.01,113,���쓌,3.9,7
2011/6/1,21:00:00,158,��쓌,2.2,5.2,93.4,0,0,0.01,135,�쓌,4,55
2011/6/1,22:00:00,90,��,1.2,5.6,94.2,0,0,0.01,135,�쓌,4.5,7
2011/6/1,23:00:00,135,�쓌,2.1,6.1,92.3,0,0,0.01,135,�쓌,4.2,58
2011/6/1,0:00:00,180,��,2,6.2,90.9,0,0,0.01,90,��,5.5,31
2011/6/2,1:00:00,180,��,1.9,5.9,92.9,0,0,0.01,158,��쓌,4,29
2011/6/2,2:00:00,225,�쐼,2.5,5.7,93.6,0,0,0.01,203,��쐼,3.6,15
2011/6/2,3:00:00,270,��,2,5.5,94.7,0,0,0.01,248,���쐼,3.8,3
2011/6/2,4:00:00,270,��,1.3,5.5,94.3,0,0,0.01,270,��,2.5,10
2011/6/2,5:00:00,270,��,1.2,5.6,93.5,0,0,0.02,270,��,2.4,11
2011/6/2,6:00:00,315,�k��,1.5,6.3,91.3,0,5,0.07,338,�k�k��,2.4,56
2011/6/2,7:00:00,315,�k��,1.7,7,88.3,0,60,0.16,315,�k��,3.3,46
2011/6/2,8:00:00,293,���k��,1.4,7.3,85.8,0,60,0.18,293,���k��,3,19
2011/6/2,9:00:00,360,�k,0.8,8.4,84,0,60,0.24,293,���k��,2.4,9
2011/6/2,10:00:00,113,���쓌,1.3,8.7,84,0,60,0.3,135,�쓌,3.6,19
2011/6/2,11:00:00,90,��,1.8,9.3,81,0,60,0.45,68,���k��,3.5,50
2011/6/2,12:00:00,68,���k��,2.9,9,83.1,0,60,0.51,68,���k��,5.5,50
2011/6/2,13:00:00,68,���k��,2.6,9.8,82.9,0,60,0.48,68,���k��,5.1,30
2011/6/2,14:00:00,45,�k��,2.4,8.8,85.3,0,60,0.26,45,�k��,4.2,50
2011/6/2,15:00:00,68,���k��,2.1,9.2,88.7,0,60,0.23,68,���k��,4,30
2011/6/2,16:00:00,135,�쓌,1.7,9.3,92.7,0,36,0.13,68,���k��,3.3,28
2011/6/2,17:00:00,158,��쓌,2.2,9.1,93.8,0,0,0.09,135,�쓌,5,39
2011/6/2,18:00:00,135,�쓌,1.8,9.2,95,0,0,0.04,158,��쓌,4.1,51
2011/6/2,19:00:00,135,�쓌,1.7,9.1,95.6,0,0,0.01,135,�쓌,4,26
2011/6/2,20:00:00,23,�k�k��,1.2,8.9,97.1,0,0,0.01,135,�쓌,2.7,5
2011/6/2,21:00:00,23,�k�k��,1.5,8.6,98,0,0,0.01,23,�k�k��,2.2,13
2011/6/2,22:00:00,23,�k�k��,1.6,8.8,98.4,0,0,0.01,23,�k�k��,2.7,40
2011/6/2,23:00:00,23,�k�k��,1.7,8.6,98.6,0,0,0.01,360,�k,2.6,49
2011/6/2,0:00:00,23,�k�k��,1.7,8.5,98.7,0,0,0.01,23,�k�k��,2.6,56
2011/6/3,1:00:00,360,�k,1.3,8.4,98.7,0,0,0.01,45,�k��,2.5,15
2011/6/3,2:00:00,23,�k�k��,1.6,8.3,98.7,0,0,0.01,45,�k��,2.3,52
2011/6/3,3:00:00,360,�k,0.5,8.2,98.8,0,0,0.01,360,�k,1.8,27
2011/6/3,4:00:00,225,�É�,0.1,8.1,98.8,0,0,0.01,68,���k��,1.1,28
2011/6/3,5:00:00,315,�k��,0.7,8.3,98.8,0,0,0.01,293,���k��,1.1,59
2011/6/3,6:00:00,270,��,0.8,8.8,98.8,0.5,0,0.05,338,�k�k��,2.4,41
2011/6/3,7:00:00,315,�k��,1,10.4,98.2,0,55,0.24,315,�k��,2.6,41
2011/6/3,8:00:00,113,���쓌,1.4,11.6,87.9,0,60,0.45,23,�k�k��,2.2,0
2011/6/3,9:00:00,135,�쓌,1.8,10.6,91.2,0,60,0.22,158,��쓌,2.8,50
2011/6/3,10:00:00,135,�쓌,2.2,12.5,82.4,0,60,0.79,158,��쓌,4.7,0
2011/6/3,11:00:00,135,�쓌,2.8,12.6,78.2,0,60,0.72,113,���쓌,5.4,20
2011/6/3,12:00:00,158,��쓌,2.8,13.2,75.5,0,60,0.86,135,�쓌,5.1,47
2011/6/3,13:00:00,113,���쓌,2.6,13.1,79.7,0,60,1.01,135,�쓌,4.9,42
2011/6/3,14:00:00,90,��,2.1,14.9,76.4,0,60,0.85,113,���쓌,4.8,0
2011/6/3,15:00:00,90,��,2.2,13.9,80.2,0,60,0.74,90,��,4.6,29
2011/6/3,16:00:00,90,��,2.3,14,81,0,60,0.52,90,��,3.5,26
2011/6/3,17:00:00,90,��,1,15.7,76.8,0,60,0.31,90,��,3.2,17
2011/6/3,18:00:00,90,��,1.3,14.1,84.6,0,36,0.15,68,���k��,2.5,14
2011/6/3,19:00:00,45,�k��,1,11.5,89.1,0,0,0.04,23,�k�k��,2.8,43
2011/6/3,20:00:00,45,�k��,1.2,10.2,94.6,0,0,0,45,�k��,2,50
2011/6/3,21:00:00,338,�k�k��,0.7,9.2,95.9,0,0,0,45,�k��,1.8,32
2011/6/3,22:00:00,180,��,0.3,8.1,97.3,0,0,0,113,���쓌,1.6,32
2011/6/3,23:00:00,68,���k��,0.6,7.6,97.8,0,0,0.01,113,���쓌,1.8,41
2011/6/3,0:00:00,248,���쐼,0.9,6.6,98.1,0,0,0.01,338,�k�k��,1.6,6
2011/6/4,1:00:00,270,��,0.4,5.9,98.3,0,0,0.01,293,���k��,1.7,7
2011/6/4,2:00:00,203,��쐼,0.6,5.6,98.5,0,0,0.01,360,�k,1.4,17
2011/6/4,3:00:00,270,��,1.6,4.9,98.5,0,0,0.01,270,��,2,59
2011/6/4,4:00:00,270,��,1.8,4.4,98.7,0,0,0.01,270,��,2.5,38
2011/6/4,5:00:00,270,��,1.4,6.6,98.9,0,9,0.07,270,��,3.1,34
2011/6/4,6:00:00,135,�쓌,0.4,9.7,99,0,57,0.2,293,���k��,3.4,10
2011/6/4,7:00:00,113,���쓌,1.2,11.2,97.6,0,60,0.42,90,��,2.4,56
2011/6/4,8:00:00,113,���쓌,2.1,12.3,84.2,0,60,0.5,90,��,3.5,0
2011/6/4,9:00:00,113,���쓌,2.7,12.4,83.7,0,60,0.65,113,���쓌,4.4,40
2011/6/4,10:00:00,90,��,3.5,12.7,78.8,0,60,0.82,113,���쓌,4.8,54
2011/6/4,11:00:00,113,���쓌,3.1,12.4,82,0,60,0.79,113,���쓌,5.3,55
2011/6/4,12:00:00,158,��쓌,4.5,14.7,78.3,0,60,0.89,135,�쓌,7.8,38
2011/6/4,13:00:00,158,��쓌,4.7,15.8,76.7,0,60,0.72,158,��쓌,7.7,56
2011/6/4,14:00:00,68,���k��,3.8,15.8,77.1,0,60,0.51,180,��,8.3,4
2011/6/4,15:00:00,203,��쐼,3.1,20.7,54.2,0,60,0.31,180,��,8.3,35
2011/6/4,16:00:00,180,��,4.3,20.6,52.1,0,60,0.53,135,�쓌,7.4,30
2011/6/4,17:00:00,158,��쓌,2.4,11.8,85.1,0,32,0.28,180,��,6.7,6
2011/6/4,18:00:00,158,��쓌,4.3,10.2,90.6,0,2,0.08,180,��,6.9,41
2011/6/4,19:00:00,180,��,3.1,11.1,90.9,0,0,0.02,180,��,7.8,18
2011/6/4,20:00:00,248,���쐼,3.6,11.5,97.6,0.5,0,0,158,��쓌,9.1,17
2011/6/4,21:00:00,135,�쓌,1.8,12.4,97.6,4,0,0,158,��쓌,6.3,42
2011/6/4,22:00:00,135,�쓌,2.3,10.6,98.1,1,0,0,158,��쓌,6,16
2011/6/4,23:00:00,203,��쐼,1.2,10.9,98.4,0,0,0.01,135,�쓌,5.1,8
2011/6/4,0:00:00,158,��쓌,2.9,11.4,98,0,0,0.01,158,��쓌,4.7,59
2011/6/5,1:00:00,225,�쐼,3,12.5,95.1,0,0,0,315,�k��,6.4,33
2011/6/5,2:00:00,338,�k�k��,0.9,10.6,96.6,0,0,0,225,�쐼,6,2
2011/6/5,3:00:00,68,���k��,1.2,8.5,96.5,0,0,0,45,�k��,4,30
2011/6/5,4:00:00,270,��,2.1,10.1,98.3,0,0,0.01,270,��,3.6,42
2011/6/5,5:00:00,68,���k��,2,9.7,98.6,0,5,0.06,23,�k�k��,3.1,58
2011/6/5,6:00:00,225,�쐼,4.2,15.9,77.2,0,60,0.22,203,��쐼,7.7,53
2011/6/5,7:00:00,45,�k��,2.4,14.9,86,0,60,0.43,68,���k��,5.8,41
2011/6/5,8:00:00,203,��쐼,4.6,19.2,59.3,0,60,0.63,45,�k��,8.3,0
2011/6/5,9:00:00,248,���쐼,7.9,19.5,56.3,0,60,0.8,248,���쐼,11.5,51
2011/6/5,10:00:00,225,�쐼,8.5,20,60.6,0,60,0.94,225,�쐼,13.1,37
2011/6/5,11:00:00,248,���쐼,7.3,20.9,62.8,0,60,1.02,270,��,13.1,22
2011/6/5,12:00:00,248,���쐼,7.5,21,53.1,0,60,1.03,225,�쐼,14.3,19
2011/6/5,13:00:00,225,�쐼,8.3,21.2,54.2,0,60,1.02,225,�쐼,12.2,45
2011/6/5,14:00:00,248,���쐼,8.6,21.1,55.3,0,60,0.92,225,�쐼,12.6,50
2011/6/5,15:00:00,225,�쐼,7.8,21.3,51.4,0,60,0.78,225,�쐼,12.9,8
2011/6/5,16:00:00,225,�쐼,7.4,21.1,49.9,0,60,0.62,225,�쐼,11.6,32
2011/6/5,17:00:00,248,���쐼,6.3,20.4,54.7,0,60,0.41,203,��쐼,10.3,16
2011/6/5,18:00:00,248,���쐼,4.7,19.6,55.3,0,56,0.2,225,�쐼,8.7,26
2011/6/5,19:00:00,293,���k��,1.3,15.9,69.8,0,0,0.04,225,�쐼,6.5,4
2011/6/5,20:00:00,293,���k��,1.8,15,73.6,0,0,0,293,���k��,4.7,36
2011/6/5,21:00:00,338,�k�k��,1.6,14.1,76.7,0,0,0,315,�k��,3.4,22
2011/6/5,22:00:00,113,���쓌,2.1,14.1,77,0,0,0,90,��,5.6,45
2011/6/5,23:00:00,68,���k��,1.2,11,89.7,0,0,0,113,���쓌,2.8,10
2011/6/5,0:00:00,248,���쐼,0.9,8.5,95.5,0,0,0,225,�쐼,1.3,54
2011/6/6,1:00:00,270,��,1.5,8,96.9,0,0,0,315,�k��,2.2,31
2011/6/6,2:00:00,270,��,2,8.4,97.9,0,0,0.01,270,��,2.6,27
2011/6/6,3:00:00,270,��,0.7,7.2,98,0,0,0,270,��,2.4,1
2011/6/6,4:00:00,270,��,1.5,7.2,98.2,0,0,0.01,270,��,2.8,39
2011/6/6,5:00:00,293,���k��,1.3,8.3,98.6,0,4,0.06,270,��,2.2,39
2011/6/6,6:00:00,293,���k��,0.7,11.6,95.4,0,60,0.22,270,��,2.2,20
2011/6/6,7:00:00,68,���k��,1.7,14.7,82.7,0,60,0.4,45,�k��,2.7,55
2011/6/6,8:00:00,90,��,2.1,15.1,76.7,0,60,0.61,90,��,3.6,0
2011/6/6,9:00:00,113,���쓌,3.1,15.1,76.7,0,60,0.78,113,���쓌,4.9,43
2011/6/6,10:00:00,113,���쓌,2.9,15.9,76.3,0,60,0.91,113,���쓌,4.6,52
2011/6/6,11:00:00,135,�쓌,3.7,14.8,76,0,60,1,158,��쓌,5.9,58
2011/6/6,12:00:00,135,�쓌,3.8,14.7,75.8,0,60,1.08,135,�쓌,5.6,41
2011/6/6,13:00:00,158,��쓌,3.1,14.3,79.1,0,60,0.83,135,�쓌,6.7,2
2011/6/6,14:00:00,158,��쓌,2.9,12.5,83,0,60,0.34,158,��쓌,6,41
2011/6/6,15:00:00,68,���k��,2.8,11.9,91.1,0,45,0.21,45,�k��,3.5,54
2011/6/6,16:00:00,45,�k��,5.1,11.5,92.2,1,34,0.25,45,�k��,8,50
2011/6/6,17:00:00,45,�k��,3.3,11.5,95.5,2,13,0.1,45,�k��,6.6,8
2011/6/6,18:00:00,68,���k��,0.9,10.7,94.5,1,8,0.08,23,�k�k��,4.9,5
2011/6/6,19:00:00,180,��,2.1,10.3,96.4,0,0,0.03,180,��,3.3,50
2011/6/6,20:00:00,225,�쐼,1.6,9.2,97.5,0,0,0.01,225,�쐼,2.6,18
2011/6/6,21:00:00,293,���k��,1.4,10,98.2,0,0,0,293,���k��,2.6,20
2011/6/6,22:00:00,270,��,0.5,8.2,97.8,0,0,0,293,���k��,2.6,3
2011/6/6,23:00:00,270,��,1,7.8,98.4,0,0,0,270,��,1.5,48
2011/6/6,0:00:00,360,�k,0.8,7.2,98.6,0,0,0,270,��,1.6,28
2011/6/7,1:00:00,248,�É�,0.2,8,98.8,0,0,0,270,��,1.8,37
2011/6/7,2:00:00,293,���k��,1.3,7.9,98.9,0,0,0.01,248,���쐼,2.4,48
2011/6/7,3:00:00,293,���k��,1.7,8.3,98.9,0,0,0.01,293,���k��,3.1,37
2011/6/7,4:00:00,270,��,1.6,8.8,99,0,0,0.01,315,�k��,2.7,10
2011/6/7,5:00:00,360,�k,0.4,8.6,99,0,0,0.05,293,���k��,2.6,8
2011/6/7,6:00:00,45,�k��,0.9,9.3,99.1,0,35,0.13,23,�k�k��,1.5,0
2011/6/7,7:00:00,180,��,0.5,10.4,99.1,0,60,0.23,23,�k�k��,2.5,31
2011/6/7,8:00:00,90,��,1.2,12.1,99.1,0,60,0.36,90,��,2.6,0
2011/6/7,9:00:00,90,��,3.3,11.8,98.8,0,60,0.58,90,��,4.2,55
2011/6/7,10:00:00,90,��,2.9,11.8,96.8,0,60,0.82,90,��,5.3,29
2011/6/7,11:00:00,113,���쓌,3.1,11.7,90.8,0,60,0.75,90,��,4.7,50
2011/6/7,12:00:00,90,��,2.5,11.9,87.7,0,60,0.79,90,��,4.5,30
2011/6/7,13:00:00,113,���쓌,2.7,13,84.2,0,60,0.88,113,���쓌,4.7,49
2011/6/7,14:00:00,113,���쓌,2.6,12.2,86.8,0,60,0.88,90,��,4.2,37
2011/6/7,15:00:00,113,���쓌,2.3,11.4,87,0,60,0.62,113,���쓌,4.6,22
2011/6/7,16:00:00,113,���쓌,2.2,11.8,85.9,0,60,0.39,113,���쓌,3.8,56
2011/6/7,17:00:00,90,��,2.1,9,96.3,0,39,0.22,113,���쓌,4.4,22
2011/6/7,18:00:00,68,���k��,2.8,9.4,98,0,5,0.09,45,�k��,4,54
2011/6/7,19:00:00,68,���k��,1.7,10.3,98.4,0,0,0.02,68,���k��,3.6,3
2011/6/7,20:00:00,68,���k��,1.4,10.2,97.5,0,0,0,45,�k��,3.2,14
2011/6/7,21:00:00,90,��,1.3,10,98,0,0,0,23,�k�k��,2.9,17
2011/6/7,22:00:00,90,��,0.8,9.9,98.5,0,0,0,68,���k��,2.8,2
2011/6/7,23:00:00,360,�k,1.2,9.8,98.7,0,0,0,68,���k��,2.3,39
2011/6/7,0:00:00,338,�k�k��,1.3,9.7,98.9,0,0,0,360,�k,2.4,15
2011/6/8,1:00:00,360,�k,1.7,9.3,98.9,0,0,0,360,�k,3,20
2011/6/8,2:00:00,338,�k�k��,2.1,9.2,99,0,0,0,360,�k,4.4,47
2011/6/8,3:00:00,360,�k,1.3,9.5,99,0,0,0,360,�k,3.4,7
2011/6/8,4:00:00,360,�k,1.4,9.6,99.1,0,0,0.01,68,���k��,3.1,31
2011/6/8,5:00:00,315,�k��,1,9.8,99.1,0,0,0.02,315,�k��,1.7,48
2011/6/8,6:00:00,338,�k�k��,1.4,10.7,99.1,0,3,0.07,360,�k,2.2,42
2011/6/8,7:00:00,360,�k,1.2,11,99.1,0,6,0.09,23,�k�k��,2.9,48
2011/6/8,8:00:00,45,�k��,1.8,11.5,99.1,0,49,0.15,68,���k��,2.9,27
2011/6/8,9:00:00,90,��,2.7,11.8,98.7,0,60,0.26,90,��,3.5,59
2011/6/8,10:00:00,90,��,1.8,12.3,96.1,0,60,0.38,90,��,4.9,22
2011/6/8,11:00:00,90,��,2.4,12.5,89.4,0,60,0.48,90,��,4.4,30
2011/6/8,12:00:00,90,��,2.7,12.9,86.2,0,60,0.56,90,��,4.8,50
2011/6/8,13:00:00,90,��,2.6,13.5,87.3,0,60,0.68,113,���쓌,4.6,10
2011/6/8,14:00:00,90,��,2.9,12.9,89.1,0,60,0.68,113,���쓌,4.2,59
2011/6/8,15:00:00,113,���쓌,2.7,12,93.9,0,60,0.4,113,���쓌,4.4,32
2011/6/8,16:00:00,135,�쓌,1.7,12.4,95.3,0,60,0.28,113,���쓌,4,24
2011/6/8,17:00:00,90,��,2.1,12,97.9,0,57,0.17,90,��,3.7,17
2011/6/8,18:00:00,113,���쓌,0.6,11.9,98.4,0,17,0.1,113,���쓌,3,22
2011/6/8,19:00:00,68,���k��,1.1,11.2,98.5,0,0,0.03,68,���k��,1.3,52
2011/6/8,20:00:00,23,�k�k��,1.1,10.6,98.7,0,0,0.01,45,�k��,2,30
2011/6/8,21:00:00,338,�k�k��,0.6,10.2,98.9,0,0,0.01,293,���k��,1.8,45
2011/6/8,22:00:00,270,��,1,8.9,98.9,0,0,0.01,293,���k��,1.5,47
2011/6/8,23:00:00,270,��,1.1,7.7,98.9,0,0,0.01,270,��,2.6,23
2011/6/8,0:00:00,45,�k��,0.5,7.4,99,0,0,0.01,270,��,2.3,23
2011/6/9,1:00:00,293,���k��,1.9,6.6,99,0,0,0.01,293,���k��,2.6,54
2011/6/9,2:00:00,248,���쐼,0.4,6.6,99,0,0,0.01,270,��,3.4,43
2011/6/9,3:00:00,270,��,0.4,6.1,99,0,0,0.01,270,��,2.5,23
2011/6/9,4:00:00,293,���k��,1,6,99,0,0,0.01,270,��,2.3,42
2011/6/9,5:00:00,248,�É�,0.2,7.9,99.2,0,3,0.06,315,�k��,1.9,4
2011/6/9,6:00:00,23,�k�k��,1.2,10.4,99.2,0,59,0.19,45,�k��,2.8,27
2011/6/9,7:00:00,90,��,1.8,11.8,99.1,0,60,0.3,45,�k��,3,17
2011/6/9,8:00:00,68,���k��,1.8,13,99,0,60,0.3,45,�k��,3,48
2011/6/9,9:00:00,68,���k��,2.7,14,95.9,0,60,0.6,68,���k��,4.5,44
2011/6/9,10:00:00,45,�k��,2.8,16.3,81.7,0,60,0.84,68,���k��,4.7,51
2011/6/9,11:00:00,113,���쓌,2.2,18.5,79.2,0,60,0.83,113,���쓌,4.4,42
2011/6/9,12:00:00,180,��,4,18.4,71.3,0,60,1,203,��쐼,9.9,48
2011/6/9,13:00:00,180,��,6.2,16.2,74.4,0,60,0.92,158,��쓌,11.2,56
2011/6/9,14:00:00,180,��,4.7,16.2,74.9,0,60,0.65,180,��,12.2,3
2011/6/9,15:00:00,180,��,5.9,15.1,78,0,60,0.37,203,��쐼,11.9,32
2011/6/9,16:00:00,180,��,5.4,15.3,75.9,0,60,0.37,180,��,11.8,26
2011/6/9,17:00:00,203,��쐼,4.4,15.4,77.1,0,40,0.15,203,��쐼,12,3
2011/6/9,18:00:00,180,��,5.1,15.2,77.2,0,0,0.06,180,��,9,56
2011/6/9,19:00:00,180,��,4.4,14.5,78.9,0,0,0.03,180,��,9.9,6
2011/6/9,20:00:00,180,��,4,13.5,83.5,0,0,0.01,180,��,8.4,36
2011/6/9,21:00:00,180,��,4.3,13.8,85.8,0,0,0.01,180,��,8.8,30
2011/6/9,22:00:00,180,��,3.9,14.7,85.8,0,0,0.01,203,��쐼,10.2,30
2011/6/9,23:00:00,270,��,2.7,13.6,88,0,0,0.01,180,��,8.1,5
2011/6/9,0:00:00,180,�É�,0.2,13.2,93.7,0,0,0.01,270,��,3.3,1
2011/6/10,1:00:00,158,��쓌,2,13.3,96.7,2,0,0.01,158,��쓌,3.6,22
2011/6/10,2:00:00,158,��쓌,1.3,13.1,97.9,0,0,0.01,225,�쐼,3.8,22
2011/6/10,3:00:00,90,��,1.5,11.9,98.4,0.5,0,0.01,135,�쓌,3.6,41
2011/6/10,4:00:00,45,�k��,1.4,11.5,98.7,0,0,0.01,90,��,3.4,13
2011/6/10,5:00:00,158,��쓌,1.1,10.7,98.8,0.5,0,0.02,113,���쓌,3.6,42
2011/6/10,6:00:00,23,�k�k��,1,11.8,99,0,0,0.06,158,��쓌,2.6,5
2011/6/10,7:00:00,45,�k��,1.1,13.9,98.9,0,55,0.22,360,�k,2.3,14
2011/6/10,8:00:00,23,�k�k��,2.3,14.4,98.8,0,60,0.28,90,��,3.4,26
2011/6/10,9:00:00,68,���k��,1.7,15.2,97.1,0,59,0.5,90,��,4.7,30
2011/6/10,10:00:00,45,�k��,2.7,18.2,84.8,0,60,0.75,45,�k��,4.9,38
2011/6/10,11:00:00,90,��,2.4,19.5,86.8,0,60,0.99,45,�k��,5.2,21
2011/6/10,12:00:00,90,��,2.4,19.6,76.8,0,60,1.03,90,��,5.1,18
2011/6/10,13:00:00,90,��,2.3,20.1,76.2,0,60,0.86,45,�k��,5.1,20
2011/6/10,14:00:00,90,��,3.8,18.4,73.3,0,60,0.91,90,��,5.9,58
2011/6/10,15:00:00,113,���쓌,3.7,20.1,72.1,0,60,0.76,113,���쓌,7.1,44
2011/6/10,16:00:00,158,��쓌,4.9,13.6,81.4,0,60,0.59,158,��쓌,8,58
2011/6/10,17:00:00,135,�쓌,2.4,14.8,82.2,0,60,0.4,158,��쓌,8.3,3
2011/6/10,18:00:00,135,�쓌,2.6,13.6,85.5,0,55,0.2,158,��쓌,4.3,2
2011/6/10,19:00:00,180,��,2.4,11.7,92.2,0,0,0.03,158,��쓌,4.4,8
2011/6/10,20:00:00,203,��쐼,1.2,11.1,94.4,0,0,0.01,225,�쐼,3,4
2011/6/10,21:00:00,248,���쐼,0.7,11.2,94.8,0,0,0.01,248,���쐼,1.8,19
2011/6/10,22:00:00,158,��쓌,1.3,11.7,96.5,0,0,0.01,158,��쓌,3.2,47
2011/6/10,23:00:00,90,��,2.3,10.5,98,0,0,0.01,90,��,3.3,52
2011/6/10,0:00:00,45,�k��,2.5,11.4,98.6,0,0,0.01,45,�k��,5,33
2011/6/11,1:00:00,45,�k��,3.1,11.8,98.7,0,0,0.01,45,�k��,4.9,44
2011/6/11,2:00:00,23,�k�k��,2.4,11.8,98.9,0,0,0.01,68,���k��,4.4,25
2011/6/11,3:00:00,360,�k,2.6,11.9,98.9,0,0,0.01,360,�k,4.9,10
2011/6/11,4:00:00,360,�k,2.4,11.9,98.9,0,0,0.01,360,�k,4.5,10
2011/6/11,5:00:00,360,�k,1.9,12.3,99,0,0,0.03,360,�k,3.8,3
2011/6/11,6:00:00,68,���k��,2.2,12.9,98.9,0,14,0.1,68,���k��,3.3,52
2011/6/11,7:00:00,45,�k��,3.4,13,98.9,0,47,0.14,68,���k��,5.3,55
2011/6/11,8:00:00,45,�k��,1.5,13.8,98.8,0,60,0.23,45,�k��,4,6
2011/6/11,9:00:00,45,�k��,2.4,14.8,97.7,0,60,0.31,90,��,4.8,7
2011/6/11,10:00:00,68,���k��,2.7,15.7,87.9,0,60,0.46,90,��,4.8,32
2011/6/11,11:00:00,90,��,3.5,16.1,84.6,0,60,0.74,113,���쓌,5.4,56
2011/6/11,12:00:00,90,��,4.2,14.8,89.1,0,60,0.78,90,��,5.8,57
2011/6/11,13:00:00,68,���k��,4,15.3,86.6,0,60,0.68,90,��,5.9,17
2011/6/11,14:00:00,45,�k��,3.9,15.3,85.5,0,60,0.63,68,���k��,7.5,32
2011/6/11,15:00:00,90,��,2.9,15,85,0,60,0.75,90,��,6.3,7
2011/6/11,16:00:00,68,���k��,2.8,11.6,94.1,0,51,0.35,90,��,5.1,0
2011/6/11,17:00:00,45,�k��,5.4,11.7,97.3,0,2,0.08,45,�k��,8.5,42
2011/6/11,18:00:00,180,��,0.5,12.9,97.9,0,0,0.03,45,�k��,7.6,1
2011/6/11,19:00:00,270,��,1.7,13.9,97.1,0.5,0,0.02,270,��,3.3,44
2011/6/11,20:00:00,270,��,2.4,14,97.3,0,0,0.01,293,���k��,4,59
2011/6/11,21:00:00,270,��,3,13.3,97,0,0,0.01,293,���k��,4.5,1
2011/6/11,22:00:00,293,���k��,2.1,14.1,97.1,0,0,0.01,293,���k��,3.5,51
2011/6/11,23:00:00,90,��,1.4,11.5,97.7,0,0,0.01,90,��,2.8,45
2011/6/11,0:00:00,90,��,1.8,11.1,98.7,0.5,0,0.01,68,���k��,2.7,55
2011/6/12,1:00:00,338,�k�k��,0.6,11.8,98.8,0,0,0.01,90,��,3,2
2011/6/12,2:00:00,270,��,1.8,12.3,98.9,0,0,0.01,248,���쐼,2.8,35
2011/6/12,3:00:00,248,���쐼,1,12.7,98.9,0,0,0.01,270,��,2.1,2
2011/6/12,4:00:00,270,��,1.3,12.7,98.9,0,0,0.01,270,��,2.2,15
2011/6/12,5:00:00,270,��,1.3,13.2,98.9,0,0,0.04,248,���쐼,1.9,50
2011/6/12,6:00:00,158,��쓌,0.9,13.8,98.8,0,0,0.07,270,��,1.5,12
2011/6/12,7:00:00,158,��쓌,1.7,13.4,98.7,0,0,0.09,135,�쓌,2.6,26
2011/6/12,8:00:00,158,��쓌,2,13.5,98.8,0,49,0.14,158,��쓌,3.4,20
2011/6/12,9:00:00,158,��쓌,1.8,13.8,98.8,0,60,0.22,180,��,3.8,36
2011/6/12,10:00:00,158,��쓌,2.5,14.7,97.9,0,60,0.38,135,�쓌,4.1,35
2011/6/12,11:00:00,135,�쓌,2.8,15.4,86.6,0,60,0.57,135,�쓌,4.6,57
2011/6/12,12:00:00,135,�쓌,3.4,15.9,85.6,0,60,0.65,135,�쓌,5.6,49
2011/6/12,13:00:00,158,��쓌,3.5,14.6,87.6,0,60,0.56,180,��,6.3,10
2011/6/12,14:00:00,180,��,3.1,14.2,92.2,0,60,0.37,180,��,5.3,55
2011/6/12,15:00:00,158,��쓌,2.7,13.8,93,0,60,0.27,180,��,5.1,43
2011/6/12,16:00:00,113,���쓌,1.7,14.9,90.7,0,60,0.29,158,��쓌,4.5,10
2011/6/12,17:00:00,90,��,1.7,13.8,92.6,0,59,0.18,90,��,3.1,25
2011/6/12,18:00:00,90,��,1.6,13.3,93.6,0,12,0.08,90,��,2.4,0
2011/6/12,19:00:00,23,�k�k��,1.3,12.5,96.5,0,0,0.02,90,��,2.5,27
2011/6/12,20:00:00,45,�k��,1.2,12.6,97.8,0,0,0.01,68,���k��,2.9,16
2011/6/12,21:00:00,68,���k��,2.2,12.3,98.4,0,0,0.01,90,��,3.2,52
2011/6/12,22:00:00,23,�k�k��,1.2,12.4,98.6,0,0,0.01,45,�k��,2.5,7
2011/6/12,23:00:00,360,�k,0.7,12.5,98.7,0,0,0.01,23,�k�k��,1.8,1
2011/6/12,0:00:00,248,���쐼,0.9,12.5,98.7,0,0,0.01,360,�k,1.7,21
2011/6/13,1:00:00,360,�k,0.4,12.8,98.6,0,0,0.01,315,�k��,0.9,43
2011/6/13,2:00:00,180,�É�,0.1,12.9,98.5,0,0,0.01,203,��쐼,0.8,24
2011/6/13,3:00:00,135,�쓌,0.8,12.9,98.5,0,0,0.01,360,�k,1.4,17
2011/6/13,4:00:00,135,�쓌,1,12.3,98.6,0,0,0.01,135,�쓌,2,41
2011/6/13,5:00:00,113,���쓌,0.4,12.7,98.8,0,0,0.03,180,��,2,14
2011/6/13,6:00:00,113,���쓌,1.1,12.8,98.8,0,8,0.08,90,��,2,25
2011/6/13,7:00:00,113,���쓌,1.2,15,98.1,0,60,0.23,90,��,2.6,50
2011/6/13,8:00:00,90,��,3.8,12.9,95.1,0,60,0.28,90,��,6.4,36
2011/6/13,9:00:00,90,��,3.9,12.3,97,0,60,0.26,113,���쓌,5.6,54
2011/6/13,10:00:00,90,��,2.5,12.2,95.5,0,60,0.26,90,��,6.1,6
2011/6/13,11:00:00,90,��,2.4,12.1,95,0,60,0.24,90,��,4.5,17
2011/6/13,12:00:00,90,��,2.2,12.7,94.1,0,60,0.19,113,���쓌,3.8,17
2011/6/13,13:00:00,90,��,2.4,12.9,92.1,0,60,0.23,90,��,3.9,29
2011/6/13,14:00:00,90,��,2.2,12.5,92,0,60,0.2,90,��,3.7,17
2011/6/13,15:00:00,90,��,1.2,13.3,93.5,0,60,0.19,68,���k��,3.1,36
2011/6/13,16:00:00,90,��,2.6,13.4,90.2,0,60,0.21,90,��,3.6,48
2011/6/13,17:00:00,68,���k��,2.6,12.9,91.8,0,41,0.15,68,���k��,3.7,51
2011/6/13,18:00:00,45,�k��,3.3,11.1,95.3,0,4,0.06,68,���k��,5.4,40
2011/6/13,19:00:00,68,���k��,2.8,10.6,96.2,0,0,0.02,68,���k��,4.3,0
2011/6/13,20:00:00,68,���k��,1.8,10.6,97.4,0,0,0.01,68,���k��,4.5,10
2011/6/13,21:00:00,360,�k,0.3,10.8,97,0,0,0.01,68,���k��,2.7,6
2011/6/13,22:00:00,270,��,0.8,10.8,97.6,0,0,0.01,225,�쐼,1.3,50
2011/6/13,23:00:00,270,��,1,10.8,98.2,0,0,0.01,270,��,1.7,23
2011/6/13,0:00:00,203,��쐼,0.3,10.7,98.4,0,0,0.01,248,���쐼,1.7,22
2011/6/14,1:00:00,158,��쓌,0.9,10.5,98.6,0.5,0,0.01,158,��쓌,1.9,44
2011/6/14,2:00:00,135,�쓌,0.8,10.6,98.7,1.5,0,0.01,113,���쓌,1.7,30
2011/6/14,3:00:00,113,���쓌,0.7,10.5,98.6,1.5,0,0.01,113,���쓌,1.8,36
2011/6/14,4:00:00,180,��,0.8,10.5,98.6,1.5,0,0.01,180,��,1.1,57
2011/6/14,5:00:00,180,��,0.9,10.4,98.5,1,0,0.01,180,��,1.7,12
2011/6/14,6:00:00,180,��,1.2,10.5,98.2,1,0,0.04,180,��,1.8,51
2011/6/14,7:00:00,158,��쓌,1,11,96.5,0,11,0.09,180,��,2.3,10
2011/6/14,8:00:00,135,�쓌,1.3,11.3,94.3,0,60,0.16,158,��쓌,2.6,14
2011/6/14,9:00:00,135,�쓌,1.3,11.4,94.6,0,60,0.22,113,���쓌,2.9,36
2011/6/14,10:00:00,113,���쓌,2,11.5,94.5,0,60,0.24,90,��,3.4,44
2011/6/14,11:00:00,90,��,2.7,11.7,95.8,0,60,0.32,90,��,4,58
2011/6/14,12:00:00,90,��,2.6,13.1,87.8,0.5,60,0.61,68,���k��,5.9,56
2011/6/14,13:00:00,68,���k��,3.4,13.6,86.5,0,60,0.75,68,���k��,5.4,53
2011/6/14,14:00:00,90,��,3.7,12.9,83.9,0,60,0.66,90,��,5.3,41
2011/6/14,15:00:00,90,��,3.3,12.9,85.2,0,60,0.54,113,���쓌,5,42
2011/6/14,16:00:00,68,���k��,3.6,11.8,89.1,0,60,0.27,68,���k��,5.8,29
2011/6/14,17:00:00,68,���k��,2.2,11.3,92.2,0,37,0.12,68,���k��,4.4,17
2011/6/14,18:00:00,68,���k��,1.9,11.2,93.7,0,0,0.05,68,���k��,3.5,1
2011/6/14,19:00:00,45,�k��,1.3,10.7,96.8,0,0,0.02,68,���k��,2.7,49
2011/6/14,20:00:00,68,���k��,1.6,10.7,98,0,0,0.01,45,�k��,2.5,49
2011/6/14,21:00:00,135,�쓌,1.2,10.6,98.4,0,0,0.01,90,��,2.5,29
2011/6/14,22:00:00,90,��,1.1,10.5,98.6,0,0,0.01,113,���쓌,2.7,0
2011/6/14,23:00:00,90,��,1.4,10.5,98.6,0,0,0.01,68,���k��,2.5,34
2011/6/14,0:00:00,90,��,2.1,10.2,98.6,0,0,0.01,90,��,2.9,53
2011/6/15,1:00:00,68,���k��,2.1,10,98.7,0,0,0.01,90,��,3.4,41
2011/6/15,2:00:00,113,���쓌,1.5,9.9,98.8,0,0,0.01,113,���쓌,2.6,45
2011/6/15,3:00:00,158,��쓌,0.7,10,98.7,0,0,0.01,68,���k��,1.8,4
2011/6/15,4:00:00,113,���쓌,0.8,10.1,98.1,0,0,0.01,90,��,1.6,48
2011/6/15,5:00:00,113,���쓌,1,10.4,95.4,0,0,0.03,113,���쓌,1.7,30
2011/6/15,6:00:00,90,��,1.3,11.1,92.7,0,26,0.12,113,���쓌,2.6,30
2011/6/15,7:00:00,315,�k��,0.6,11.5,89.7,0,60,0.24,113,���쓌,2.2,21
2011/6/15,8:00:00,135,�쓌,1.7,11.1,95.3,1.5,52,0.16,90,��,2.9,47
2011/6/15,9:00:00,180,��,0.9,11.9,93.4,0,60,0.25,113,���쓌,1.9,42
2011/6/15,10:00:00,135,�쓌,1.9,12.3,93,0,60,0.27,135,�쓌,3.6,35
2011/6/15,11:00:00,158,��쓌,1.8,13.9,87.4,0,60,0.65,135,�쓌,3.5,55
2011/6/15,12:00:00,135,�쓌,3.2,14.6,81.7,0,60,1,113,���쓌,4.7,55
2011/6/15,13:00:00,158,��쓌,3.6,13.7,86.3,0,60,0.62,158,��쓌,5.3,23
2011/6/15,14:00:00,135,�쓌,3.2,12.9,86.6,0,60,0.65,135,�쓌,6.1,13
2011/6/15,15:00:00,135,�쓌,3.3,13.6,83.5,0,60,0.63,180,��,5.6,19
2011/6/15,16:00:00,135,�쓌,2.4,12.8,88.5,0,60,0.27,113,���쓌,4.8,4
2011/6/15,17:00:00,135,�쓌,2.2,13.6,84.3,0,60,0.35,113,���쓌,3.7,22
2011/6/15,18:00:00,113,���쓌,1.6,12.1,90.4,0,8,0.1,135,�쓌,2.9,38
2011/6/15,19:00:00,113,���쓌,1.7,11.6,92.4,0,0,0.02,90,��,3.1,35
2011/6/15,20:00:00,135,�쓌,0.8,11.6,92.2,0,0,0.01,135,�쓌,2.4,10
2011/6/15,21:00:00,45,�k��,0.6,11.7,92.9,0,0,0.01,135,�쓌,1.3,37
2011/6/15,22:00:00,113,���쓌,0.9,11.6,92.2,0,0,0.01,90,��,2.8,28
2011/6/15,23:00:00,113,���쓌,0.9,11.5,95.1,0,0,0.01,135,�쓌,1.9,28
2011/6/15,0:00:00,135,�쓌,0.7,11.4,95.7,0,0,0.01,158,��쓌,1.4,42
2011/6/16,1:00:00,135,�쓌,0.5,11.5,95.6,0,0,0.01,225,�쐼,1,31
2011/6/16,2:00:00,68,���k��,0.3,11.5,96,0,0,0.01,90,��,1.2,15
2011/6/16,3:00:00,180,��,0.9,11.4,96.4,0,0,0.01,68,���k��,1.5,26
2011/6/16,4:00:00,158,��쓌,0.9,11.3,96.2,0,0,0.01,158,��쓌,2.3,48
2011/6/16,5:00:00,180,��,1.4,11.4,95.9,0,0,0.02,158,��쓌,2.2,54
2011/6/16,6:00:00,180,��,2.6,11.5,94.9,0,0,0.07,180,��,4.1,45
2011/6/16,7:00:00,180,��,2.4,12,94.2,0,45,0.13,180,��,4.3,17
2011/6/16,8:00:00,180,��,2.9,12.7,92.8,0,60,0.27,158,��쓌,5.3,50
2011/6/16,9:00:00,135,�쓌,3,13.6,87.5,0,60,0.6,158,��쓌,5.3,17
2011/6/16,10:00:00,135,�쓌,2.8,13.4,86.6,0,60,0.61,135,�쓌,5.7,2
2011/6/16,11:00:00,135,�쓌,3,14.4,80.5,0,60,1.04,113,���쓌,5.6,44
2011/6/16,12:00:00,135,�쓌,3.8,13.9,79,0,60,1.06,135,�쓌,6.4,44